Location: Ocean City
(38.3360°N, 75.0850°W)
Time: 19:06:06
(UTC-04:00)

Max Valier Satellite - Pass Details

Date: 22 May 2019
Orbit: 492 x 507 km, 97.4° (Epoch: 20 June)

Event Time Altitude Azimuth Distance (km) Brightness Sun altitude
Exits shadow 22:31:22 28° 233° (SW) 956 ? -22.0°
Maximum altitude 22:32:16 32° 263° (W) 871 ? -22.1°
Drops below altitude 10° 22:35:37 10° 328° (NNW) 1,714 ? -22.4°
Sets 22:37:52 0° 338° (NNW) 2,605 ? -22.7°
